Flag Weather past 2 weeks in San Bernardino, California, U.S.A.

Now
49 °F

Clear.


Feels Like: 47 °F
Forecast: 50 / 71 °F
Wind: 5 mph from Southeast

Location: Riverside Municipal Airport

Current Time: Nov 24, 2014 at 4:52:18 AM

Latest Report: Nov 24, 2014 at 3:53 AM


Visibility: 10 mi

Pressure: 30.12 "Hg

Humidity: 32%

Dew point: 20 °F

Location of San BernardinoLocation

Historic Weather in San Bernardino — Graph

°F

San Bernardino temperature yesterday

Maximum temperature yesterday: 76 °F (at 1:53 PM)
Minimum temperature yesterday: 50 °F (at 5:53 AM)
Average temperature yesterday: 63 °F

Past Weeks' High & Low Weather Summary

 TemperatureHumidityPressure
High85 °F (Nov 9, 1:53 PM)97% (Nov 9, 11:53 PM)30.17 "Hg (Nov 9, 11:53 PM)
Low47 °F (Nov 20, 4:53 AM)4% (Nov 16, 11:53 AM)29.76 "Hg (Nov 9, 3:53 PM)
Average62 °F54%30.00 "Hg
* Reported Nov 9 3:53 AM — Nov 24 3:53 AM, San Bernardino, Weather by CustomWeather, © 2014

Note: Actual official high and low records may vary slightly from our data, if they occured in-between our weather recording intervals... More about our weather records

Advertising

San Bernardino weather history for previous 24 hours

 ConditionsComfort  
Time TempWeatherWind HumidityBarometerVisibility
3:53 AM
Nov 24
49 °FClear.5 mph32%30.12 "Hg10 mi
2:53 AM51 °FClear.3 mph29%30.13 "Hg10 mi
1:53 AM51 °FClear.5 mph29%30.14 "Hg10 mi
12:53 AM52 °FClear.5 mph28%30.14 "Hg10 mi
11:53 PM
Nov 23
55 °FClear.7 mph23%30.14 "Hg10 mi
10:53 PM56 °FClear.7 mph22%30.14 "Hg10 mi
9:53 PM56 °FClear.3 mph20%30.13 "Hg10 mi
8:53 PM59 °FClear.5 mph16%30.13 "Hg10 mi
7:53 PM64 °FClear.5 mph11%30.12 "Hg10 mi
6:53 PM67 °FClear.8 mph8%30.09 "Hg10 mi
5:53 PM69 °FClear.9 mph7%30.09 "Hg10 mi
4:53 PM70 °FClear.9 mph7%30.07 "Hg10 mi
3:53 PM73 °FScattered clouds.8 mph5%30.06 "Hg10 mi
2:53 PM75 °FSunny.12 mph5%30.05 "Hg10 mi
1:53 PM76 °FSunny.17 mph6%30.03 "Hg10 mi
12:53 PM75 °FSunny.17 mph7%30.04 "Hg10 mi
11:53 AM75 °FScattered clouds.13 mph7%30.07 "Hg10 mi
10:53 AM73 °FSunny.15 mph8%30.08 "Hg10 mi
9:53 AM71 °FPartly sunny.8 mph14%30.11 "Hg10 mi
8:53 AM68 °FScattered clouds.17 mph24%30.11 "Hg10 mi
7:53 AM66 °FSunny.12 mph32%30.09 "Hg10 mi
6:53 AM63 °FPartly sunny.13 mph40%30.05 "Hg10 mi
5:53 AM50 °FClear.No wind89%30.06 "Hg9 mi
4:53 AM52 °FClear.6 mph86%30.03 "Hg10 mi
Weather by CustomWeather, © 2014

See weather overviewHow to use our weather pages